GOES-S (43226 NORAD) Tracking and Keplerian Element Data

This shows tracking and keplerian element data for the satellite.

Feedback or suggestion? Click here.




ElementValue
Catalog43226
NameGOES-S
Epoch Orbit268
Epoch Day322.22214058
Epoch Year2018
RAAN66.5204
Inclination0.0203
Eccentricity0.0002617
Argument of Perigee310.5862
Mean Anonmoly342.9022
Mean Motion1.00267898
Decay Rate1.06E-06
L11 43226U 18022A 18322.22214058 .00000106 00000-0 00000-0 0 9997
L22 43226 0.0203 66.5204 0002617 310.5862 342.9022 1.00267898 2687

Live tracking and technical data element details for GOES-S (NORAD 43226). GOES-S can be tracked NOW for your location showing map with azimuth and elevation plus other details from your city location.

Track the satellite on the map from your city or location and see movement details for azimuth, elevation, latitude, longitude, range, height, and movement on the map or in text.







IsCatalogInMostPopularTable: catalog: 43226, numindb: 199
Update: records affected: 1



GetName: 43226 GOES-S

Hit Count: updated at: Mon, 19 Nov 2018 11:27:50 GMT